When you browse on this site, cookies collect data to enhance your experience and personalize the content and advertising you see.
Visit our Privacy Policy to learn more. By continuing to use the site, you agree to this use of cookies and data.
  • In France
  • List of Countries
  • For 7 days
  • Water Temperature
  • Satellite Maps
  • Weather Map
  • Weather Widgets
  • user-avatar
    Login

    Hourly Weather Satif

    Today, 19 January, Saturday

    Time Temperature Precipitation Wind Pressure Humidity
    00:00 +4°C° 0 mm 1 mps 669 mmHg 87%
    01:00 +3°C° 0 mm 1 mps 669 mmHg 86%
    02:00 +3°C° 0 mm 1 mps 668 mmHg 85%
    03:00 +3°C° 0 mm 1 mps 668 mmHg 85%
    04:00 +3°C° 0 mm 1 mps 668 mmHg 85%
    05:00 +3°C° 0 mm 1 mps 668 mmHg 85%
    06:00 +2°C° 0 mm 1 mps 668 mmHg 86%
    07:00 +4°C° 0 mm 1 mps 668 mmHg 82%
    08:00 +5°C° 0 mm 1 mps 669 mmHg 79%
    09:00 +6°C° 0 mm 1 mps 669 mmHg 75%
    10:00 +6°C° 0 mm 2 mps 669 mmHg 71%
    11:00 +6°C° 0 mm 2 mps 669 mmHg 66%
    12:00 +7°C° 0 mm 2 mps 669 mmHg 62%
    13:00 +7°C° 0.2 mm 2 mps 669 mmHg 63%
    14:00 +7°C° 0.2 mm 2 mps 669 mmHg 64%
    15:00 +7°C° 0.2 mm 3 mps 669 mmHg 65%
    16:00 +6°C° 0.3 mm 2 mps 668 mmHg 71%
    17:00 +5°C° 0.3 mm 2 mps 668 mmHg 78%
    18:00 +4°C° 0.3 mm 2 mps 668 mmHg 84%
    19:00 +5°C° 0 mm 1 mps 668 mmHg 87%
    20:00 +4°C° 0 mm 1 mps 668 mmHg 89%
    21:00 +3°C° 0 mm 1 mps 668 mmHg 92%
    22:00 +3°C° 0 mm 1 mps 668 mmHg 92%
    23:00 +3°C° 0 mm 1 mps 668 mmHg 92%

    Tomorrow, 20 January, Sunday

    Time Temperature Precipitation Wind Pressure Humidity
    00:00 +2°C° 0 mm 1 mps 668 mmHg 91%
    01:00 +2°C° 0 mm 1 mps 668 mmHg 89%
    02:00 +2°C° 0 mm 1 mps 667 mmHg 87%
    03:00 +2°C° 0 mm 1 mps 667 mmHg 85%
    04:00 +2°C° 0 mm 1 mps 667 mmHg 81%
    05:00 +1°C° 0 mm 2 mps 667 mmHg 77%
    06:00 +1°C° 0 mm 2 mps 667 mmHg 73%
    07:00 +2°C° 0 mm 2 mps 667 mmHg 70%
    08:00 +2°C° 0 mm 3 mps 667 mmHg 68%
    09:00 +3°C° 0 mm 3 mps 667 mmHg 66%
    10:00 +4°C° 0.3 mm 3 mps 667 mmHg 68%
    11:00 +4°C° 0.3 mm 4 mps 667 mmHg 70%
    12:00 +5°C° 0.3 mm 4 mps 667 mmHg 71%
    13:00 +5°C° 0 mm 4 mps 666 mmHg 72%
    14:00 +5°C° 0 mm 4 mps 666 mmHg 73%
    15:00 +5°C° 0 mm 4 mps 665 mmHg 74%
    16:00 +5°C° 0.6 mm 4 mps 665 mmHg 79%
    17:00 +4°C° 0.6 mm 3 mps 665 mmHg 84%
    18:00 +3°C° 0.6 mm 3 mps 665 mmHg 88%
    19:00 +4°C° 0.1 mm 2 mps 665 mmHg 89%
    20:00 +4°C° 0.1 mm 2 mps 665 mmHg 90%
    21:00 +4°C° 0.1 mm 2 mps 666 mmHg 91%
    22:00 +4°C° 0 mm 2 mps 665 mmHg 92%
    23:00 +3°C° 0 mm 2 mps 665 mmHg 93%

    Day after tomorrow, 21 January, Monday

    Time Temperature Precipitation Wind Pressure Humidity
    00:00 +3°C° 0 mm 2 mps 665 mmHg 94%
    01:00 +3°C° 0 mm 2 mps 665 mmHg 94%
    02:00 +3°C° 0 mm 2 mps 664 mmHg 94%
    03:00 +2°C° 0 mm 2 mps 664 mmHg 94%
    04:00 +2°C° 0.2 mm 2 mps 664 mmHg 94%
    05:00 +3°C° 0.2 mm 2 mps 664 mmHg 94%
    06:00 +3°C° 0.2 mm 2 mps 664 mmHg 94%
    07:00 +4°C° 0.1 mm 2 mps 665 mmHg 89%
    08:00 +4°C° 0.1 mm 3 mps 665 mmHg 84%
    09:00 +5°C° 0.1 mm 3 mps 666 mmHg 78%
    10:00 +6°C° 0 mm 4 mps 666 mmHg 73%
    11:00 +7°C° 0 mm 4 mps 666 mmHg 67%
    12:00 +8°C° 0 mm 5 mps 666 mmHg 62%
    13:00 +5°C° 1.1 mm 6 mps 666 mmHg 72%
    14:00 +4°C° 1.1 mm 7 mps 666 mmHg 82%
    15:00 +2°C° 1.1 mm 9 mps 666 mmHg 92%
    16:00 +2°C° 0.2 mm 7 mps 666 mmHg 91%
    17:00 +2°C° 0.2 mm 6 mps 667 mmHg 91%
    18:00 +1°C° 0.2 mm 5 mps 668 mmHg 90%
    19:00 +1°C° 0 mm 5 mps 668 mmHg 89%
    20:00 +1°C° 0 mm 4 mps 669 mmHg 88%
    21:00 +2°C° 0 mm 3 mps 669 mmHg 88%
    22:00 +2°C° 0.1 mm 3 mps 669 mmHg 89%
    23:00 +2°C° 0.1 mm 3 mps 669 mmHg 89%

    22 January, Tuesday

    Time Temperature Precipitation Wind Pressure Humidity
    00:00 +3°C° 0.1 mm 2 mps 669 mmHg 90%
    01:00 +2°C° 0 mm 2 mps 669 mmHg 92%
    02:00 +2°C° 0 mm 2 mps 669 mmHg 93%
    03:00 +2°C° 0 mm 2 mps 669 mmHg 95%
    04:00 +2°C° 0 mm 2 mps 669 mmHg 95%
    05:00 +2°C° 0 mm 2 mps 669 mmHg 95%
    06:00 +2°C° 0 mm 2 mps 669 mmHg 95%
    07:00 +1°C° 0 mm 3 mps 669 mmHg 90%
    08:00 +2°C° 0 mm 3 mps 669 mmHg 84%
    09:00 +2°C° 0 mm 3 mps 670 mmHg 79%
    10:00 +3°C° 0 mm 3 mps 669 mmHg 75%
    11:00 +3°C° 0 mm 3 mps 669 mmHg 71%
    12:00 +3°C° 0 mm 3 mps 669 mmHg 67%
    13:00 +4°C° 0 mm 3 mps 669 mmHg 63%
    14:00 +4°C° 0 mm 3 mps 668 mmHg 60%
    15:00 +4°C° 0 mm 3 mps 668 mmHg 57%
    16:00 +5°C° 0 mm 2 mps 667 mmHg 61%
    17:00 +4°C° 0 mm 2 mps 667 mmHg 64%
    18:00 +3°C° 0 mm 2 mps 666 mmHg 68%
    19:00 +3°C° 0 mm 2 mps 666 mmHg 71%
    20:00 +2°C° 0 mm 3 mps 666 mmHg 74%
    21:00 +1°C° 0 mm 3 mps 666 mmHg 77%
    22:00 0°C° 0 mm 4 mps 665 mmHg 77%
    23:00 0°C° 0 mm 4 mps 664 mmHg 76%

    23 January, Wednesday

    Time Temperature Precipitation Wind Pressure Humidity
    00:00 0°C° 0 mm 4 mps 663 mmHg 76%
    01:00 0°C° 0.1 mm 4 mps 662 mmHg 78%
    02:00 0°C° 0.1 mm 5 mps 661 mmHg 80%
    03:00 -1°C° 0.1 mm 5 mps 660 mmHg 82%
    04:00 -1°C° 0.3 mm 6 mps 660 mmHg 84%
    05:00 -1°C° 0.3 mm 6 mps 659 mmHg 87%
    06:00 -1°C° 0.3 mm 7 mps 659 mmHg 89%
    07:00 -1°C° 0.7 mm 7 mps 659 mmHg 87%
    08:00 -1°C° 0.7 mm 7 mps 658 mmHg 85%
    09:00 -1°C° 0.7 mm 7 mps 658 mmHg 83%
    10:00 -1°C° 0.8 mm 8 mps 658 mmHg 82%
    11:00 -1°C° 0.8 mm 9 mps 658 mmHg 81%
    12:00 -3°C° 0.8 mm 10 mps 658 mmHg 80%
    13:00 -3°C° 0.4 mm 11 mps 657 mmHg 77%
    14:00 -3°C° 0.4 mm 11 mps 657 mmHg 73%
    15:00 -2°C° 0.4 mm 12 mps 657 mmHg 70%
    16:00 -3°C° 0.7 mm 9 mps 656 mmHg 76%
    17:00 -3°C° 0.7 mm 7 mps 656 mmHg 82%
    18:00 -2°C° 0.7 mm 4 mps 655 mmHg 88%
    19:00 -1°C° 1.3 mm 3 mps 655 mmHg 91%
    20:00 -1°C° 1.3 mm 3 mps 656 mmHg 93%
    21:00 -2°C° 1.3 mm 2 mps 656 mmHg 96%
    22:00 -2°C° 0.8 mm 3 mps 656 mmHg 94%
    23:00 -4°C° 0.8 mm 5 mps 656 mmHg 93%

    24 January, Thursday

    Time Temperature Precipitation Wind Pressure Humidity
    00:00 -5°C° 0.8 mm 6 mps 656 mmHg 91%
    01:00 -5°C° 0.3 mm 6 mps 656 mmHg 91%
    02:00 -6°C° 0.3 mm 5 mps 655 mmHg 91%
    03:00 -6°C° 0.3 mm 5 mps 655 mmHg 91%
    04:00 -6°C° 0.2 mm 5 mps 655 mmHg 90%
    05:00 -7°C° 0.2 mm 5 mps 656 mmHg 90%
    06:00 -7°C° 0.2 mm 5 mps 656 mmHg 90%
    07:00 -6°C° 0 mm 5 mps 656 mmHg 87%
    08:00 -6°C° 0 mm 5 mps 657 mmHg 85%
    09:00 -5°C° 0 mm 5 mps 657 mmHg 83%
    10:00 -4°C° 0 mm 6 mps 657 mmHg 81%
    11:00 -4°C° 0 mm 6 mps 657 mmHg 80%
    12:00 -3°C° 0 mm 7 mps 657 mmHg 78%
    13:00 -3°C° 0 mm 7 mps 658 mmHg 77%
    14:00 -3°C° 0 mm 7 mps 658 mmHg 76%
    15:00 -4°C° 0 mm 8 mps 658 mmHg 75%
    16:00 -4°C° 0 mm 6 mps 658 mmHg 80%
    17:00 -5°C° 0 mm 5 mps 658 mmHg 84%
    18:00 -5°C° 0 mm 3 mps 658 mmHg 88%
    19:00 -6°C° 0 mm 3 mps 658 mmHg 88%
    20:00 -6°C° 0 mm 3 mps 659 mmHg 88%
    21:00 -7°C° 0 mm 3 mps 659 mmHg 88%
    22:00 -7°C° 0 mm 3 mps 659 mmHg 87%
    23:00 -7°C° 0 mm 3 mps 659 mmHg 87%
    Show more